Вернуться в каталог

QIANFAN-66

АктивенСвязьPO
NORAD 62796·PAYLOAD·🇨🇳 China

Запущен Jan 23, 2025 с Taiyuan Satellite Launch Center

Loading…

Ближайшие Пролёты (ближайшие 24 часа)

TLE

СвежийSource: Space-Track

Эпоха: Sep 14, 2026, 22:33 UTC

1 62796U 25016M   26257.93997086  .00000038  00000-0  40691-4 0  9992
2 62796  88.9672  74.3623 0013170 259.8109 100.1556 13.51019572 84580

Отслеживайте QIANFAN-66 в реальном времени с AllMySat

Download on the App Store